Weather in Sagutyevo

Russia / Bryansk Oblast     52°26′07″N   33°27′43″E
temp.,
°C
wind,
m/s
gust,
m/s
humid.,
%
clouds,
%
prec.,
mm/h
press.,
hPa
HPBL,
m
19 april, mon
mon1900:00+5ne229251 0.0 101938
03:00+4nne35965 0.0 1019110
06:00+3nne379723 0.0 1018190
09:00+8ne688391 0.0 1018693
12:00+7ne3788100 0.6 1018634
15:00+9ne577985 0.9 1018829
18:00+9ne698199 0.3 1018681
21:00+6ne61189100 0.3 1018555
20 april, tue
tue2000:00+5ne6985100 0.0 1018607
03:00+5ne488798 0.0 1016541
06:00+4ne4896100 0.0 1015481
09:00+4ne5895100 0.0 1014419
12:00+8ne578297 0.0 1012685
15:00+10ne6867100 0.1 10091195
18:00+9ne6980100 0.1 1007944
21:00+6nne6990100 0.2 1006543
21 april, wed
wed2100:00+5nnw61095100 0.0 1004660
03:00+4nw61096100 0.1 1003703
06:00+4wnw61096100 0.1 1004784
09:00+4w61096100 0.1 1006741
12:00+6w7873100 0.1 10081090
15:00+8wsw6961100 0.3 10091482
18:00+8wsw577495 0.3 1010897
21:00+6sw368551 0.6 1012128
22 april, thu
thu2200:00+4sw338538 0.0 101338
03:00+4sw228946 0.0 101415
06:00+4s3395100 0.0 101444
09:00+9s478055 0.0 1015431
12:00+14ssw68575 1.1 10151457
15:00+16ssw684859 1.6 10142106
18:00+14ssw696286 1.2 1015717
21:00+9s3788100 3.6 1016125
23 april, fri
fri2300:00+8s358937 0.6 101684
03:00+7s359393 0.7 101593
06:00+7sse4109483 0.3 1014237
09:00+11s6107683 0.4 1013582
12:00+14s9136997 0.6 10121512
15:00+4nw71292100 3.3 1013499
18:00+3wnw4892100 1.2 1015410
21:00+3s369249 1.2 1016161